When you browse on this site, cookies collect data to enhance your experience and personalize the content and advertising you see.
Visit our Privacy Policy to learn more. By continuing to use the site, you agree to this use of cookies and data.
  • In Deutschland
  • Länderverzeichnis
  • Für 7 Tage
  • Wassertemperatur
  • Wetterkarte
  • Widgets
  • user-avatar
    Anmelden

    Stündliche Wetter Kaygorodskoe

    Heute, 19 Oktober, Samstag

    Zeit Temperatur Niederschläge Wind Luftdruck Luftfeuchtigkeit
    00:00 -7°C° 0 mm 3 m/S 749 mmHg 82%
    01:00 -8°C° 0 mm 3 m/S 749 mmHg 82%
    02:00 -8°C° 0 mm 3 m/S 749 mmHg 83%
    03:00 -7°C° 0 mm 2 m/S 750 mmHg 83%
    04:00 -8°C° 0 mm 2 m/S 750 mmHg 87%
    05:00 -8°C° 0 mm 2 m/S 750 mmHg 87%
    06:00 -8°C° 0 mm 2 m/S 751 mmHg 87%
    07:00 -8°C° 0 mm 2 m/S 751 mmHg 87%
    08:00 -7°C° 0 mm 2 m/S 751 mmHg 79%
    09:00 -6°C° 0 mm 3 m/S 752 mmHg 71%
    10:00 -5°C° 0 mm 3 m/S 753 mmHg 64%
    11:00 -5°C° 0 mm 3 m/S 753 mmHg 62%
    12:00 -3°C° 0 mm 2 m/S 753 mmHg 60%
    13:00 -3°C° 0 mm 2 m/S 753 mmHg 58%
    14:00 -3°C° 0 mm 2 m/S 753 mmHg 62%
    15:00 -4°C° 0 mm 2 m/S 753 mmHg 65%
    16:00 -2°C° 0 mm 1 m/S 754 mmHg 68%
    17:00 -3°C° 0 mm 1 m/S 754 mmHg 71%
    18:00 -4°C° 0 mm 1 m/S 754 mmHg 74%
    19:00 -6°C° 0 mm 1 m/S 754 mmHg 77%
    20:00 -6°C° 0 mm 1 m/S 755 mmHg 78%
    21:00 -6°C° 0 mm 1 m/S 755 mmHg 79%
    22:00 -6°C° 0 mm 1 m/S 756 mmHg 80%
    23:00 -7°C° 0 mm 1 m/S 755 mmHg 82%

    Morgen, 20 Oktober, Sonntag

    Zeit Temperatur Niederschläge Wind Luftdruck Luftfeuchtigkeit
    00:00 -7°C° 0 mm 1 m/S 755 mmHg 83%
    01:00 -7°C° 0 mm 1 m/S 755 mmHg 85%
    02:00 -7°C° 0 mm 1 m/S 755 mmHg 86%
    03:00 -7°C° 0 mm 1 m/S 755 mmHg 87%
    04:00 -9°C° 0 mm 2 m/S 756 mmHg 88%
    05:00 -9°C° 0 mm 2 m/S 755 mmHg 88%
    06:00 -9°C° 0 mm 2 m/S 755 mmHg 88%
    07:00 -9°C° 0 mm 2 m/S 755 mmHg 88%
    08:00 -8°C° 0 mm 3 m/S 755 mmHg 81%
    09:00 -7°C° 0 mm 3 m/S 755 mmHg 74%
    10:00 -5°C° 0 mm 4 m/S 755 mmHg 67%
    11:00 -4°C° 0 mm 4 m/S 755 mmHg 66%
    12:00 -3°C° 0 mm 4 m/S 754 mmHg 64%
    13:00 -2°C° 0 mm 4 m/S 754 mmHg 62%
    14:00 -2°C° 0 mm 4 m/S 753 mmHg 65%
    15:00 -3°C° 0 mm 4 m/S 753 mmHg 68%
    16:00 -3°C° 0 mm 4 m/S 753 mmHg 71%
    17:00 -4°C° 0 mm 4 m/S 753 mmHg 73%
    18:00 -4°C° 0 mm 4 m/S 752 mmHg 74%
    19:00 -4°C° 0 mm 4 m/S 752 mmHg 76%
    20:00 -4°C° 0 mm 4 m/S 752 mmHg 77%
    21:00 -4°C° 0 mm 4 m/S 751 mmHg 77%
    22:00 -4°C° 0 mm 4 m/S 751 mmHg 78%
    23:00 -3°C° 0 mm 4 m/S 750 mmHg 79%

    übermorgen, 21 Oktober, Montag

    Zeit Temperatur Niederschläge Wind Luftdruck Luftfeuchtigkeit
    00:00 -3°C° 0 mm 4 m/S 750 mmHg 79%
    01:00 -4°C° 0 mm 5 m/S 750 mmHg 80%
    02:00 -2°C° 0.6 mm 5 m/S 749 mmHg 83%
    03:00 -2°C° 0.6 mm 5 m/S 749 mmHg 86%
    04:00 -1°C° 0.6 mm 5 m/S 749 mmHg 89%
    05:00 -1°C° 0.1 mm 5 m/S 749 mmHg 89%
    06:00 -1°C° 0.1 mm 4 m/S 749 mmHg 89%
    07:00 0°C° 0.1 mm 4 m/S 748 mmHg 90%
    08:00 0°C° 0 mm 4 m/S 748 mmHg 89%
    09:00 +1°C° 0 mm 4 m/S 749 mmHg 88%
    10:00 +3°C° 0 mm 4 m/S 749 mmHg 87%
    11:00 +3°C° 0 mm 4 m/S 749 mmHg 87%
    12:00 +3°C° 0 mm 4 m/S 748 mmHg 87%
    13:00 +4°C° 0 mm 4 m/S 748 mmHg 86%
    14:00 +3°C° 0 mm 4 m/S 748 mmHg 88%
    15:00 +2°C° 0 mm 3 m/S 748 mmHg 90%
    16:00 +2°C° 0 mm 3 m/S 748 mmHg 92%
    17:00 +2°C° 0 mm 3 m/S 748 mmHg 93%
    18:00 +1°C° 0 mm 3 m/S 747 mmHg 94%
    19:00 +1°C° 0 mm 3 m/S 747 mmHg 94%
    20:00 +1°C° 0 mm 3 m/S 747 mmHg 94%
    21:00 +1°C° 0 mm 3 m/S 746 mmHg 95%
    22:00 +1°C° 0 mm 3 m/S 745 mmHg 95%
    23:00 +1°C° 0.4 mm 4 m/S 745 mmHg 94%

    22 Oktober, Dienstag

    Zeit Temperatur Niederschläge Wind Luftdruck Luftfeuchtigkeit
    00:00 +1°C° 0.4 mm 4 m/S 744 mmHg 94%
    01:00 +1°C° 0.4 mm 5 m/S 743 mmHg 93%
    02:00 +2°C° 0.1 mm 5 m/S 742 mmHg 92%
    03:00 +2°C° 0.1 mm 6 m/S 741 mmHg 90%
    04:00 +3°C° 0.1 mm 6 m/S 740 mmHg 88%
    05:00 +3°C° 0 mm 7 m/S 739 mmHg 87%
    06:00 +3°C° 0 mm 7 m/S 739 mmHg 86%
    07:00 +4°C° 0 mm 7 m/S 738 mmHg 85%
    08:00 +4°C° 0.1 mm 7 m/S 737 mmHg 84%
    09:00 +4°C° 0.1 mm 7 m/S 736 mmHg 83%
    10:00 +5°C° 0.1 mm 8 m/S 736 mmHg 82%
    11:00 +5°C° 0 mm 7 m/S 735 mmHg 82%
    12:00 +5°C° 0 mm 7 m/S 735 mmHg 82%
    13:00 +5°C° 0 mm 7 m/S 734 mmHg 83%
    14:00 +6°C° 0.1 mm 7 m/S 734 mmHg 84%
    15:00 +7°C° 0.1 mm 6 m/S 735 mmHg 85%
    16:00 +7°C° 0.1 mm 6 m/S 735 mmHg 87%
    17:00 +6°C° 0 mm 5 m/S 735 mmHg 86%
    18:00 +6°C° 0 mm 5 m/S 736 mmHg 84%
    19:00 +5°C° 0 mm 5 m/S 736 mmHg 83%
    20:00 +5°C° 0 mm 5 m/S 737 mmHg 85%
    21:00 +4°C° 0 mm 4 m/S 737 mmHg 86%
    22:00 +3°C° 0 mm 4 m/S 737 mmHg 87%
    23:00 +3°C° 0 mm 4 m/S 738 mmHg 87%

    23 Oktober, Mittwoch

    Zeit Temperatur Niederschläge Wind Luftdruck Luftfeuchtigkeit
    00:00 +1°C° 0 mm 4 m/S 738 mmHg 87%
    01:00 +1°C° 0 mm 4 m/S 738 mmHg 87%
    02:00 0°C° 0 mm 4 m/S 739 mmHg 86%
    03:00 -1°C° 0 mm 4 m/S 739 mmHg 85%
    04:00 -1°C° 0 mm 4 m/S 740 mmHg 83%
    05:00 -2°C° 0 mm 4 m/S 740 mmHg 85%
    06:00 -2°C° 0 mm 4 m/S 741 mmHg 86%
    07:00 -2°C° 0 mm 3 m/S 741 mmHg 87%
    08:00 -1°C° 0 mm 3 m/S 742 mmHg 83%
    09:00 0°C° 0 mm 3 m/S 742 mmHg 80%
    10:00 0°C° 0 mm 4 m/S 742 mmHg 76%
    11:00 +1°C° 0 mm 3 m/S 743 mmHg 74%
    12:00 +1°C° 0 mm 3 m/S 743 mmHg 72%
    13:00 +3°C° 0 mm 2 m/S 743 mmHg 70%
    14:00 +2°C° 0 mm 2 m/S 743 mmHg 74%
    15:00 +2°C° 0 mm 2 m/S 743 mmHg 78%
    16:00 +1°C° 0 mm 2 m/S 743 mmHg 82%
    17:00 -1°C° 0 mm 2 m/S 743 mmHg 85%
    18:00 -1°C° 0 mm 2 m/S 743 mmHg 88%
    19:00 -2°C° 0 mm 2 m/S 743 mmHg 91%
    20:00 -2°C° 0 mm 2 m/S 743 mmHg 90%
    21:00 -2°C° 0 mm 3 m/S 743 mmHg 89%
    22:00 -2°C° 0 mm 3 m/S 743 mmHg 88%
    23:00 -2°C° 0 mm 3 m/S 742 mmHg 87%

    24 Oktober, Donnerstag

    Zeit Temperatur Niederschläge Wind Luftdruck Luftfeuchtigkeit
    00:00 -2°C° 0 mm 3 m/S 742 mmHg 87%
    01:00 -1°C° 0 mm 3 m/S 741 mmHg 86%
    02:00 -2°C° 0 mm 4 m/S 741 mmHg 86%
    03:00 -2°C° 0 mm 4 m/S 741 mmHg 86%
    04:00 -1°C° 0 mm 4 m/S 740 mmHg 86%
    05:00 -1°C° 0 mm 4 m/S 740 mmHg 86%
    06:00 0°C° 0 mm 4 m/S 739 mmHg 86%
    07:00 +1°C° 0 mm 5 m/S 739 mmHg 86%
    08:00 +1°C° 0 mm 5 m/S 739 mmHg 85%
    09:00 +2°C° 0 mm 5 m/S 738 mmHg 84%
    10:00 +3°C° 0 mm 5 m/S 738 mmHg 83%
    11:00 +3°C° 0 mm 5 m/S 738 mmHg 84%
    12:00 +5°C° 0 mm 5 m/S 738 mmHg 84%
    13:00 +5°C° 0 mm 5 m/S 738 mmHg 84%
    14:00 +5°C° 0 mm 5 m/S 738 mmHg 86%
    15:00 +5°C° 0 mm 5 m/S 738 mmHg 87%
    16:00 +5°C° 0 mm 5 m/S 738 mmHg 89%
    17:00 +5°C° 0 mm 5 m/S 738 mmHg 89%
    18:00 +5°C° 0 mm 5 m/S 739 mmHg 90%
    19:00 +3°C° 0 mm 5 m/S 739 mmHg 90%
    20:00 +5°C° 0 mm 4 m/S 739 mmHg 90%
    21:00 +5°C° 0 mm 4 m/S 739 mmHg 89%
    22:00 +5°C° 0 mm 4 m/S 740 mmHg 89%
    23:00 +5°C° 0 mm 4 m/S 740 mmHg 90%
    Mehr zeigen